SCP
0 0 0 0 0 0 0 0 0 0 0 0 0 0 0 0 0 0 0 0 0 0 0 0 0 0 0 0 0 0 0 0 0 0 0 0 0 0 0 0 0 0 0 0 0 0 0 0 0
0 0 0 0 0 0 0 0 0 0 0 0 0 0 0 0 0 0 0 0 0 0 0 0 0 0 0 0 0 0 0 0 0 0 0 0 0 0 0 0 0 0 0 0 0 0 0 0 0
0 0 0 0 0 0 0 0 0 0 0 0 0 0 0 0 0 0 0 0 0 0 0 0 0 0 0 0 0 0 0 0 0 0 0 0 0 0 0 0 0 0 0 0 0 0 0 0 0
0 0 0 0 0 0 0 0 0 0 0 0 0 0 0 0 0 0 0 0 0 0 0 0 0 0 0 0 0 0 0 0 0 0 0 0 0 0 0 0 0 0 0 0 0 0 0 0 0
0 0 0 0 0 0 0 0 0 0 0 0 0 0 0 0 0 0 0 0 0 0 0 0 0 0 0 0 0 0 0 0 0 0 0 0 0 0 0 0 0 0 0 0 0 0 0 0 0
0 0 0 0 0 0 0 0 0 0 0 0 0 0 0 0 0 0 0 0 0 0 0 0 0 0 0 0 0 0 0 0 0 0 0 0 0 0 0 0 0 0 0 0 0 0 0 0 0
0 0 0 0 0 0 0 0 0 0 0 0 0 0 0 0 0 0 0 0 0 0 0 0 0 0 0 0 0 0 0 0 0 0 0 0 0 0 0 0 0 0 0 0 0 0 0 0 0
0 0 0 0 0 0 0 0 0 0 0 0 0 0 0 0 0 0 0 0 0 0 0 0 0 0 0 0 0 0 0 0 0 0 0 0 0 0 0 0 0 0 0 0 0 0 0 0 0
0 0 0 0 0 0 0 0 0 0 0 0 0 0 0 0 0 0 0 0 0 0 0 0 0 0 0 0 0 0 0 0 0 0 0 0 0 0 0 0 0 0 0 0 0 0 0 0 0
0 0 0 0 0 0 0 0 0 0 0 0 0 0 0 0 0 0 0 0 0 0 0 0 0 0 0 0 0 0 0 0 0 0 0 0 0 0 0 0 0 0 0 0 0 0 0 0 0
0 0 0 0 0 0 0 0 0 0 0 0 0 0 0 0 0 0 0 0 0 0 0 0 0 0 0 0 0 0 0 0 0 0 0 0 0 0 0 0 0 0 0 0 0 0 0 0 0
0 0 0 0 0 0 0 0 0 0 0 0 0 0 0 0 0 0 0 0 0 0 0 0 0 0 0 0 0 0 0 0 0 0 0 0 0 0 0 0 0 0 0 0 0 0 0 0 0
0 0 0 0 0 0 0 0 0 0 0 0 0 0 0 0 0 0 0 0 0 0 0 0 0 0 0 0 0 0 0 0 0 0 0 0 0 0 0 0 0 0 0 0 0 0 0 0 0
0 0 0 0 0 0 0 0 0 0 0 0 0 0 0 0 0 0 0 0 0 0 0 0 0 0 0 0 0 0 0 0 0 0 0 0 0 0 0 0 0 0 0 0 0 0 0 0 0
0 0 0 0 0 0 0 0 0 0 0 0 0 0 0 0 0 0 0 0 0 0 0 0 0 0 0 0 0 0 0 0 0 0 0 0 0 0 0 0 0 0 0 0 0 0 0 0 0
0 0 0 0 0 0 0 0 0 0 0 0 0 0 0 0 0 0 0 0 0 0 0 0 0 0 0 0 0 0 0 0 0 0 0 0 0 0 0 0 0 0 0 0 0 0 0 0 0
0 0 0 0 0 0 0 0 0 0 0 0 0 0 0 0 0 0 0 0 0 0 0 0 0 0 0 0 0 0 0 0 0 0 0 0 0 0 0 0 0 0 0 0 0 0 0 0 0
0 0 0 0 0 0 0 0 0 0 0 0 0 0 0 0 0 0 0 0 0 0 0 0 0 0 0 0 0 0 0 0 0 0 0 0 0 0 0 0 0 0 0 0 0 0 0 0 0
0 0 0 0 0 0 0 0 0 0 0 0 0 0 0 0 0 0 0 0 0 0 0 0 0 0 0 0 0 0 0 0 0 0 0 0 0 0 0 0 0 0 0 0 0 0 0 0 0
0 0 0 0 0 0 0 0 0 0 0 0 0 0 0 0 0 0 0 0 0 0 0 0 0 0 0 0 0 0 0 0 0 0 0 0 0 0 0 0 0 0 0 0 0 0 0 0 0
0 0 0 0 0 0 0 0 0 0 0 0 0 0 0 0 0 0 0 0 0 0 0 0 0 0 0 0 0 0 0 0 0 0 0 0 0 0 0 0 0 0 0 0 0 0 0 0 0
0 0 0 0 0 0 0 0 0 0 0 0 0 0 0 0 0 0 0 0 0 0 0 0 0 0 0 0 0 0 0 0 0 0 0 0 0 0 0 0 0 0 0 0 0 0 0 0 0
0 0 0 0 0 0 0 0 0 0 0 0 0 0 0 0 0 0 0 0 0 0 0 0 0 0 0 0 0 0 0 0 0 0 0 0 0 0 0 0 0 0 0 0 0 0 0 0 0
0 0 0 0 0 0 0 0 0 0 0 0 0 0 0 0 0 0 0 0 0 0 0 0 0 0 0 0 0 0 0 0 0 0 0 0 0 0 0 0 0 0 0 0 0 0 0 0 0
0 0 0 0 0 0 0 0 0 0 0 0 0 0 0 0 0 0 0 0 0 0 0 0 0 0 0 0 0 0 0 0 0 0 0 0 0 0 0 0 0 0 0 0 0 0 0 0 0
0 0 0 0 0 0 0 0 0 0 0 0 0 0 0 0 0 0 0 0 0 0 0 0 0 0 0 0 0 0 0 0 0 0 0 0 0 0 0 0 0 0 0 0 0 0 0 0 0
0 0 0 0 0 0 0 0 0 0 0 0 0 0 0 0 0 0 0 0 0 0 0 0 0 0 0 0 0 0 0 0 0 0 0 0 0 0 0 0 0 0 0 0 0 0 0 0 0
0 0 0 0 0 0 0 0 0 0 0 0 0 0 0 0 0 0 0 0 0 0 0 0 0 0 0 0 0 0 0 0 0 0 0 0 0 0 0 0 0 0 0 0 0 0 0 0 0
0 0 0 0 0 0 0 0 0 0 0 0 0 0 0 0 0 0 0 0 0 0 0 0 0 0 0 0 0 0 0 0 0 0 0 0 0 0 0 0 0 0 0 0 0 0 0 0 0
0 0 0 0 0 0 0 0 0 0 0 0 0 0 0 0 0 0 0 0 0 0 0 0 0 0 0 0 0 0 0 0 0 0 0 0 0 0 0 0 0 0 0 0 0 0 0 0 0
Wind_Speed
2 3 3 4 6 6 3 2 1 2 3 2 3 5 6 4 2 2 1 1 1 1 1 1 3 5 6 7 7 7 7 8 8 8 8 8 8 8 8 8 8 8 8 8 8 7 7 6 6
2 2 4 5 6 4 2 2 2 2 2 3 4 5 5 4 3 2 1 0 1 1 1 1 4 5 7 7 7 7 7 8 8 8 8 8 9 9 8 8 9 9 8 8 8 7 7 7 7
2 3 5 5 4 3 1 1 2 3 3 3 4 4 4 3 2 1 1 1 2 1 1 1 5 6 7 8 8 8 8 8 8 8 8 8 8 9 9 9 9 9 8 8 8 7 7 7 7
3 5 5 6 4 1 1 1 3 4 4 5 4 5 3 2 1 1 2 2 2 2 1 2 6 6 7 8 8 9 9 9 8 8 8 8 8 9 9 9 8 8 8 8 7 7 7 7 7
4 5 6 4 2 2 1 1 2 3 3 4 4 4 3 4 4 5 4 3 3 2 2 2 5 6 7 8 9 9 10 10 9 9 8 8 8 8 8 8 8 8 8 8 7 7 7 7 8
5 5 5 2 2 2 1 1 3 4 3 3 4 4 2 2 4 3 4 3 3 3 3 4 5 6 7 8 8 9 9 9 9 9 9 9 8 8 8 7 7 7 7 8 8 8 8 8 7
5 5 3 2 1 1 1 1 3 3 3 2 3 4 2 1 2 3 4 4 4 5 4 4 4 4 6 7 7 7 8 9 9 10 9 10 10 9 8 8 7 7 7 8 8 8 8 8 8
5 5 3 1 1 0 0 2 2 3 2 2 3 5 3 2 3 5 5 5 5 5 4 4 4 4 4 4 6 7 8 8 9 9 9 10 10 9 9 8 8 7 8 8 8 8 8 8 8
4 6 2 2 3 1 1 3 2 3 4 3 3 2 3 6 6 6 5 4 4 4 3 4 4 4 4 4 5 6 7 8 8 7 9 8 5 5 5 8 9 8 8 8 8 8 9 8 8
5 4 2 2 3 3 1 2 3 4 3 3 4 4 6 7 7 6 4 3 2 1 2 2 2 3 3 3 3 3 3 4 4 4 5 4 4 4 5 8 10 10 10 9 9 9 8 6 4
4 4 1 1 2 2 2 2 2 6 2 2 5 7 7 6 5 4 3 2 2 1 1 1 1 2 3 2 3 2 2 3 3 4 4 3 3 3 4 3 4 5 7 5 7 7 5 5 4
4 2 2 1 2 2 2 2 3 2 2 2 6 8 7 6 5 4 3 2 1 1 1 1 2 2 2 2 2 2 2 2 2 3 3 3 2 3 3 3 3 3 3 4 4 4 5 5 5
3 1 2 2 4 3 4 3 3 2 2 5 7 6 6 4 3 2 2 2 2 1 1 1 2 2 2 2 2 3 2 2 2 3 3 3 2 3 3 3 3 3 3 3 3 4 5 5 5
2 3 3 2 3 2 4 3 3 1 4 7 7 5 4 4 3 2 2 2 1 1 1 1 2 2 3 2 2 2 2 2 3 3 3 3 2 2 2 3 3 3 3 3 3 4 4 4 4
4 4 3 2 1 1 3 4 1 1 5 6 4 4 3 2 2 3 2 2 2 1 1 1 2 3 3 3 2 2 2 3 3 2 3 3 3 3 2 3 3 2 2 3 3 4 4 4 5
4 4 1 2 1 1 4 1 1 3 5 5 3 3 2 2 2 2 2 2 2 2 2 1 2 4 3 3 2 2 2 3 2 2 2 3 3 3 3 3 3 2 2 3 3 3 4 4 4
3 1 1 2 1 2 3 2 1 3 5 4 3 3 2 1 1 1 1 2 2 2 2 2 3 4 3 3 3 3 3 3 2 2 2 2 3 3 3 3 2 3 3 3 3 3 3 3 3
2 2 1 2 1 4 2 2 1 2 4 4 4 3 2 2 3 2 2 2 2 2 2 3 3 3 3 3 3 3 3 3 2 2 2 3 3 3 3 3 3 3 3 3 3 4 4 3 3
3 3 2 3 2 3 2 2 3 2 2 3 3 3 3 3 2 1 2 2 2 2 2 2 3 2 3 2 2 2 1 1 2 2 3 3 3 3 3 3 3 3 3 3 3 2 4 3 2
3 2 1 2 1 3 1 2 2 1 3 4 4 5 5 3 1 1 2 2 2 2 2 2 2 2 2 2 2 2 2 1 1 1 3 3 2 2 3 3 2 2 3 3 3 2 2 2 3
1 3 3 2 1 3 2 4 3 2 1 1 2 4 4 5 4 3 2 2 1 1 2 2 2 2 2 2 3 3 3 2 2 2 2 2 2 3 3 3 2 2 2 2 2 2 3 2 2
2 3 3 3 3 1 1 1 5 3 3 2 2 3 4 4 4 3 3 2 2 2 1 1 2 2 2 3 3 3 2 1 1 0 1 2 2 2 2 2 2 2 2 2 1 2 2 2 1
3 0 3 3 3 2 2 1 6 3 3 4 3 3 4 4 4 4 4 3 3 2 2 2 2 2 2 2 3 3 2 1 1 1 2 2 2 2 2 2 2 2 2 2 2 2 2 2 2
2 4 5 5 4 2 1 2 5 2 4 4 2 1 2 3 3 3 2 2 2 2 2 2 2 2 2 2 2 3 3 2 2 1 1 1 1 1 1 2 2 2 2 2 2 2 2 2 2
4 5 4 5 4 3 1 2 5 4 3 2 2 1 0 2 2 2 3 2 2 2 2 2 2 1 2 2 2 2 3 3 2 2 2 1 0 0 0 1 1 1 1 2 2 2 2 2 2
1 5 5 3 3 3 1 3 4 2 3 2 1 1 1 2 1 2 3 3 3 3 2 2 2 1 1 2 2 2 2 2 1 2 1 2 1 1 1 1 1 1 1 2 2 2 1 1 1
3 1 3 5 1 1 3 4 4 3 4 4 3 2 1 1 1 1 1 2 2 2 3 3 3 1 1 1 2 1 2 2 2 1 1 1 1 1 2 2 2 1 2 2 2 1 1 1 1
4 5 4 4 3 1 4 3 3 3 3 3 2 2 1 1 1 1 1 1 2 2 2 1 2 2 2 1 1 1 1 1 1 1 1 1 1 1 2 2 2 2 2 2 2 1 1 1 1
3 3 4 3 3 4 2 5 3 3 2 2 3 2 1 1 1 1 0 1 1 2 2 1 1 1 1 1 1 1 1 1 1 1 1 1 2 2 2 2 3 2 2 2 2 1 1 1 1
3 3 5 3 2 3 3 6 2 2 2 2 2 2 1 1 1 1 1 1 1 1 1 1 1 1 1 1 1 1 1 1 1 1 1 1 2 2 2 2 3 2 2 2 2 2 1 1 1
Wind_Direction
69 82 78 59 56 54 53 354 0 59 54 41 54 77 91 79 82 113 295 104 68 60 9 79 81 78 75 73 71 72 77 78 74 73 73 75 76 77 79 79 79 82 79 74 72 71 76 80 78
86 78 57 59 77 71 23 348 43 52 115 118 66 65 71 61 56 84 11 343 73 91 56 86 90 78 74 73 71 73 77 78 75 73 74 76 76 77 78 77 76 75 73 71 70 70 74 76 75
89 58 75 68 79 119 113 50 95 70 65 68 68 55 67 62 53 96 219 128 69 52 42 89 88 79 75 74 73 75 78 80 80 77 78 77 77 78 80 78 76 74 71 68 68 72 74 74 74
79 48 55 68 75 58 127 137 128 97 53 43 79 67 59 44 107 137 113 97 80 42 41 89 89 83 77 74 72 73 75 77 80 80 77 76 76 78 81 80 77 72 70 68 68 71 71 71 71
60 70 61 56 42 5 39 94 104 81 64 47 78 85 47 3 69 98 102 90 79 49 51 85 88 85 80 75 72 72 71 69 71 72 71 73 76 77 78 76 75 71 69 68 69 69 69 69 71
57 64 78 75 20 1 25 63 86 77 80 74 83 91 58 26 77 94 90 73 65 69 65 70 84 83 80 76 70 68 70 70 69 68 66 66 69 71 71 69 73 73 69 64 63 65 67 69 69
92 83 97 114 71 29 64 91 107 106 92 92 108 94 78 38 85 104 87 70 57 56 56 48 48 63 71 72 68 65 68 68 66 65 62 62 62 61 63 62 65 66 66 64 65 66 65 66 68
112 96 80 82 105 11 51 104 99 102 100 86 91 121 157 177 113 99 83 68 61 54 50 43 39 39 41 47 61 63 63 61 60 61 59 55 52 51 53 52 52 57 62 63 64 69 66 63 64
82 78 111 175 160 186 83 99 74 70 93 69 64 112 138 131 113 99 81 62 60 58 42 44 42 36 34 38 49 51 54 52 52 48 50 47 33 33 38 44 51 55 60 61 59 63 65 60 57
79 106 187 200 168 154 104 99 124 93 75 65 65 72 105 119 120 118 119 118 106 82 53 52 48 37 37 45 41 35 41 37 40 39 39 38 33 32 39 39 47 51 53 52 54 55 55 52 37
104 141 166 95 142 134 111 82 96 119 117 184 157 143 134 126 125 133 142 148 158 155 111 81 75 56 56 49 49 38 33 34 34 35 35 39 37 31 32 31 32 35 42 39 42 44 39 40 39
104 103 124 103 92 101 113 104 88 106 193 178 153 145 142 142 149 154 159 158 130 116 133 106 95 78 68 63 55 51 43 42 39 32 34 43 42 36 31 35 27 31 31 36 38 43 43 46 46
90 96 77 81 70 76 84 81 100 49 69 99 112 115 130 138 135 126 129 122 108 113 111 109 103 105 86 74 61 59 48 48 49 46 37 49 54 44 38 36 37 35 33 36 40 44 46 45 47
117 94 78 62 62 54 96 68 77 47 103 109 120 133 143 143 139 120 109 107 110 122 130 112 104 104 95 85 79 63 52 53 55 49 41 48 54 52 50 43 37 34 34 37 45 50 52 47 49
94 83 44 28 49 66 96 48 42 142 119 119 134 149 151 151 147 156 169 160 159 154 133 132 128 101 98 93 86 73 56 59 54 46 43 50 57 58 56 52 41 25 34 49 52 48 51 52 49
70 72 25 296 98 96 106 204 258 146 134 142 148 150 156 175 178 171 156 151 147 124 116 139 123 111 107 98 86 77 64 62 54 46 44 52 58 64 63 53 37 25 43 52 58 50 58 50 46
44 101 234 294 162 125 123 226 248 148 148 163 165 170 173 193 217 183 154 155 150 143 131 109 104 117 112 98 83 73 64 59 50 45 41 47 58 64 69 58 38 38 51 50 60 53 61 60 49
198 192 220 241 208 125 139 231 252 157 164 183 183 184 187 199 227 195 154 137 120 116 114 104 98 107 107 96 82 66 55 45 44 42 37 50 56 60 66 60 44 49 59 54 59 65 55 58 46
155 155 206 247 191 135 166 243 264 184 171 198 202 197 201 216 226 149 137 120 108 98 103 108 113 116 119 113 105 90 61 33 34 35 40 51 59 65 71 63 52 55 65 66 72 80 69 49 36
125 138 232 286 137 144 145 302 284 200 201 205 207 207 203 207 186 145 133 116 124 128 131 123 131 139 135 118 118 119 115 85 63 26 34 39 57 68 82 80 69 65 72 64 60 72 80 46 36
182 183 207 207 59 60 80 337 325 300 261 237 214 202 197 196 192 177 158 152 136 145 165 155 153 136 117 101 96 83 63 45 33 24 19 11 43 71 78 87 84 74 83 86 68 72 93 92 36
249 239 187 156 115 326 96 297 305 302 313 290 249 220 210 202 186 175 168 161 168 191 153 129 128 121 116 119 118 127 130 142 200 225 19 5 38 72 82 90 91 86 81 85 78 77 90 110 89
212 109 122 118 124 56 26 111 297 342 319 296 271 232 212 195 183 181 179 179 173 158 145 143 128 120 121 121 128 122 118 137 112 72 65 37 29 50 68 86 89 89 84 90 82 74 73 92 114
120 71 61 54 70 31 277 160 287 278 264 285 296 281 210 185 176 176 160 141 136 135 140 140 135 137 138 130 130 135 135 131 120 112 110 50 25 32 55 84 83 90 91 98 101 92 86 82 90
69 80 36 13 20 263 246 167 252 281 291 259 243 277 174 154 148 143 139 144 148 148 152 151 145 152 155 145 151 156 153 150 160 175 173 162 109 48 239 117 107 103 110 106 97 94 90 93 99
139 132 149 182 219 278 335 227 255 323 341 3 73 100 97 106 129 149 162 165 166 163 159 156 158 168 163 164 178 172 160 152 172 181 176 185 194 204 177 149 134 119 108 103 100 93 94 85 91
118 131 159 132 133 296 286 292 309 13 23 29 32 43 49 103 132 143 142 153 153 161 176 178 171 164 165 174 176 177 175 171 181 180 164 176 193 175 151 150 142 131 117 115 114 94 89 92 86
110 135 91 107 136 269 296 287 273 312 325 350 353 336 310 26 41 79 93 153 172 175 170 162 169 178 188 175 181 182 195 198 188 166 177 186 187 159 149 150 143 135 124 122 112 96 83 91 58
71 76 91 104 138 152 258 274 227 225 233 246 265 272 284 237 222 200 196 203 168 143 151 158 156 162 185 190 178 146 187 181 153 167 205 200 178 163 159 159 152 146 135 129 119 118 113 104 47
143 152 139 143 209 165 177 263 277 247 245 229 268 294 294 263 222 196 139 80 103 145 158 165 176 182 198 179 142 153 168 161 160 194 217 188 168 166 163 154 153 156 147 145 152 164 155 161 187